Location: Poughquag
(41.6090°N, 73.6820°W)
Time: 23:23:39
(UTC-05:00)

Envisat - Pass Details

Date: 13 October 2024
Orbit: 761 x 763 km, 98.3° (Epoch: 10 November)

Event Time Altitude Azimuth Distance (km) Brightness Sun altitude
Rises 05:48:30 0° 351° (N) 3,235 6.2 -15.1°
Reaches altitude 10° 05:52:41 10° 317° (NW) 2,302 5.1 -14.3°
Enters shadow 05:53:05 11° 313° (NW) 2,267 5.0 -14.2°
